Location: *
(49.0044°N, 9.5056°E)
Time: 19:48:48
(UTC+00:00)

Resurs 01 Rocket - Pass Details

Date: 22 September 2019
Orbit: 635 x 644 km, 98.0° (Epoch: 20 October)

Event Time Altitude Azimuth Distance (km) Brightness Sun altitude
Exits shadow 19:02:49 33° 105° (ESE) 1,081 2.2 -17.2°
Maximum altitude 19:04:01 40° 68° (ENE) 950 2.1 -17.4°
Drops below altitude 10° 19:08:11 10° 359° (N) 2,052 4.5 -18.0°
Sets 19:10:29 0° 352° (N) 2,967 5.5 -18.4°
